Weather History for K0J4 - November, 2012

Change the Weather History Date:

Thursday, November 1, 2012

  Actual Average (KCEW) Record (KCEW)
Temperature  
Mean Temperature 62 °F -  
Max Temperature 73 °F 77 °F 86 °F (1950)
Min Temperature 48 °F 50 °F 27 °F (1993)
Degree Days  
Heating Degree Days 4    
Growing Degree Days 12 (Base 50)    
Moisture  
Dew Point 45 °F    
Average Humidity 62    
Maximum Humidity 87    
Minimum Humidity 30    
Precipitation  
Precipitation 0.00 in - - ()
Sea Level Pressure  
Sea Level Pressure 30.02 in    
Wind  
Wind Speed 1 mph (North)    
Max Wind Speed 7 mph    
Max Gust Speed -    
Visibility 10 miles    
Events      
Averages and records for this station are not official NWS values.
T = Trace of Precipitation, MM = Missing Value Source: NWS Daily Summary

Daily Weather History Graph

Daily Weather History Graph

Search for Another Location

Airport or City:

Trip Planner

Search our weather history database for the weather conditions in past years. The results will help you decide how hot, cold, wet, or windy it might be!

Date:

Astronomy

Nov. 01, 2012 Rise Set
Actual Time 7:00 AM CDT 5:56 PM CDT
Civil Twilight 6:35 AM CDT 6:21 PM CDT
Nautical Twilight 6:07 AM CDT 6:49 PM CDT
Astronomical Twilight 5:38 AM CDT 7:18 PM CDT
Moon 8:01 PM CDT (11/1) 9:24 AM CDT (11/1)
Length of Visible Light 11h 45m
Length of Day
10h 55m
Waning Gibbous, 93% of the Moon is Illuminated
Nov 1
Waning Gibbous
Nov 6
Last Quarter
Nov 13
New
Nov 20
First Quarter
Nov 28
Full

Hourly Weather History & Observations

Time (CDT) Temp. Dew Point Humidity Pressure Visibility Wind Dir Wind Speed Gust Speed Precip Events Conditions
12:58 AM 57.9 °F 54.0 °F 87% 29.98 in 10.0 mi Calm Calm - N/A   Scattered Clouds
1:58 AM 59.0 °F 54.0 °F 83% 29.99 in 10.0 mi Calm Calm - N/A   Overcast
2:58 AM 57.9 °F 54.0 °F 87% 29.99 in 10.0 mi Calm Calm - N/A   Mostly Cloudy
3:58 AM 57.9 °F 53.1 °F 84% 29.99 in 10.0 mi Calm Calm - N/A   Overcast
4:58 AM 55.9 °F 50.0 °F 80% 29.99 in 10.0 mi North 4.6 mph - N/A   Mostly Cloudy
5:58 AM 55.0 °F 48.0 °F 77% 30.01 in 10.0 mi North 4.6 mph - N/A   Mostly Cloudy
6:58 AM 50.0 °F 46.0 °F 86% 30.02 in 10.0 mi Calm Calm - N/A   Clear
7:58 AM 52.0 °F 48.0 °F 86% 30.04 in 10.0 mi Calm Calm - N/A   Clear
8:58 AM 60.1 °F 41.0 °F 49% 30.06 in 10.0 mi NNE 4.6 mph - N/A   Clear
9:58 AM 64.0 °F 36.0 °F 35% 30.08 in 10.0 mi North 4.6 mph - N/A   Clear
10:58 AM 66.9 °F 35.1 °F 31% 30.09 in 10.0 mi Variable 6.9 mph - N/A   Clear
11:58 AM 68.0 °F 36.0 °F 31% 30.07 in 10.0 mi Calm Calm - N/A   Clear
12:58 PM 71.1 °F 37.9 °F 30% 30.03 in 10.0 mi Calm Calm - N/A   Clear
1:58 PM 72.0 °F 39.0 °F 30% 30.00 in 10.0 mi NNW 3.5 mph - N/A   Clear
2:58 PM 73.0 °F 41.0 °F 31% 29.98 in 10.0 mi Calm Calm - N/A   Clear
3:58 PM 73.9 °F 43.0 °F 33% 29.98 in 10.0 mi Calm Calm - N/A   Clear
4:58 PM 71.1 °F 44.1 °F 38% 29.99 in 10.0 mi Calm Calm - N/A   Clear
5:58 PM 64.9 °F 46.0 °F 50% 30.01 in 10.0 mi Calm Calm - N/A   Clear
6:58 PM 59.0 °F 46.9 °F 64% 30.03 in 10.0 mi Calm Calm - N/A   Clear
7:58 PM 53.1 °F 46.0 °F 77% 30.03 in 10.0 mi Calm Calm - N/A   Clear
8:58 PM 51.1 °F 45.0 °F 80% 30.05 in 10.0 mi Calm Calm - N/A   Clear
9:58 PM 50.0 °F 45.0 °F 83% 30.06 in 10.0 mi Calm Calm - N/A   Clear
10:58 PM 50.0 °F 44.1 °F 80% 30.05 in 10.0 mi Calm Calm - N/A   Clear
11:58 PM 48.0 °F 44.1 °F 86% 30.05 in 10.0 mi Calm Calm - N/A   Clear